Find Local Weather

World > North America > United States > Nevada

Luning, Nevada Regional Weather

Lat: 38.51N, Lon: 118.18W
Wx Zone: NVZ001
Feedback

Luning, NV Regional Weather

Expires:201905201100;;161760
ASUS45 KREV 201010
RWRNV 
NEVADA REGIONAL WEATHER ROUNDUP
NATIONAL WEATHER SERVICE RENO NV
300 AM PDT MON MAY 20 2019

NOTE: "FAIR" INDICATES FEW OR NO CLOUDS BELOW 12,000 FEET WITH NO
SIGNIFICANT WEATHER AND/OR OBSTRUCTIONS TO VISIBILITY.


NVZ001-003-004-201100-
WESTERN NEVADA
  
CITY           SKY/WX    TMP DP  RH WIND       PRES   REMARKS
RENO           MOCLDY    43  26  51 NW8       29.82R                  
CARSON CITY    FAIR      34  23  64 CALM      29.82R                  
MINDEN         FAIR      27  23  86 SE7       29.84S                  
PYRAMID LAKE     N/A     46 N/A N/A S7          N/A                   
FALLON         CLOUDY    38  32  79 S7        29.77S                  
LOVELOCK       PTCLDY    40  35  83 E5        29.75R                  
HAWTHORNE      CLOUDY    43  25  49 CALM      29.79S                  
$$


SKY/WX - Weather  TMP - Temperature  DP - Dew Point  RH - Relative Humidity
WIND - Wind Direction/Speed PRES - Barometric Pressure VSB - Visibility
WCI - Wind Chill Index E13G22 Wind - East Wind 13 mph/Gusts of 22 mph